Powrót do katalogu

CZ-6A DEB

AktywnyPO
NORAD 61806·DEBRIS·🇨🇳 China

Wystrzelony Aug 6, 2024 z Taiyuan Satellite Launch Center

Loading…

Następne Przeloty (najbliższe 24 godziny)

TLE

ŚwieżeSource: Space-Track

Epoka: Sep 13, 2026, 09:04 UTC

1 61806U 24140ABW 26256.37794189  .00000296  00000-0  23295-3 0  9992
2 61806  88.4887 229.4839 0307698  82.5459 281.0547 13.68822087101182

Śledź CZ-6A DEB w czasie rzeczywistym z AllMySat

Download on the App Store